Location: Unspecified
(0.0000°N, 0.0000°E)
Time: 18:46:59
(UTC+00:00)

SR - Pass Details

Date: 24 November 2019
Orbit: 573 x 882 km, 66.7° (Epoch: 06 December)

Event Time Altitude Azimuth Distance (km) Brightness Sun altitude
Rises 23:34:48 0° 344° (NNW) 3,360 - -69.2°
Reaches altitude 10° 23:37:21 10° 347° (NNW) 2,389 - -69.2°
Maximum altitude 23:42:49 71° 70° (ENE) 808 - -69.3°
Drops below altitude 10° 23:47:50 10° 154° (SSE) 2,196 - -69.4°
Sets 23:50:05 0° 156° (SSE) 3,068 - -69.3°
